GW5295 Weather Reports


time (UTC)temp
C
wind
direction
speed
KPH
gust
KPH
rain 1hr
cm
rain 24hr
cm
rain mn
cm
humidity
%
barometer
mb
20260506235519 8 253 16.1 24.1 0.00 0.00 0.00 69 1023.2
20260506235016 9 248 17.7 24.1 0.00 0.00 0.00 69 1023.2
20260506234609 9 256 12.9 19.3 0.00 0.00 0.00 68 1023.3
20260506234019 10 283 9.7 17.7 0.00 0.00 0.00 69 1023.2
20260506233518 9 278 11.3 17.7 0.00 0.00 0.00 69 1023.2
20260506233100 9 309 11.3 22.5 0.00 0.00 0.00 69 1023.3
20260506232516 8 261 12.9 22.5 0.00 0.00 0.00 68 1023.4
20260506232022 8 258 11.3 24.1 0.00 0.00 0.00 69 1023.4
20260506231600 8 251 17.7 24.1 0.00 0.00 0.00 70 1023.2
20260506231019 8 296 14.5 29.0 0.00 0.00 0.00 70 1023.3
20260506230517 8 259 19.3 29.0 0.00 0.00 0.00 69 1023.2
20260506230100 8 265 19.3 27.4 0.00 0.00 0.00 69 1023.2
20260506225522 8 265 20.9 29.0 0.00 0.00 0.00 68 1022.9
20260506225020 8 269 20.9 29.0 0.00 0.00 0.00 68 1022.8
20260506224558 9 255 22.5 29.0 0.00 0.00 0.00 66 1022.8
20260506224019 9 257 14.5 25.7 0.00 0.00 0.00 67 1022.9
20260506223520 9 266 19.3 25.7 0.00 0.00 0.00 66 1022.9
20260506223059 10 261 14.5 22.5 0.00 0.00 0.00 65 1022.9
20260506222520 10 264 12.9 22.5 0.00 0.00 0.00 65 1023.0
20260506222020 10 321 11.3 17.7 0.00 0.00 0.00 64 1022.9
20260506221607 10 253 14.5 17.7 0.00 0.00 0.00 63 1022.8
20260506221022 10 283 9.7 17.7 0.00 0.00 0.00 64 1022.9
20260506220525 9 279 12.9 19.3 0.00 0.00 0.00 63 1022.9
20260506220109 9 255 6.4 19.3 0.00 0.00 0.00 62 1023.0
20260506215523 9 247 12.9 20.9 0.00 0.00 0.00 63 1022.8
20260506215019 9 241 12.9 24.1 0.00 0.00 0.00 65 1022.9
20260506214558 9 259 19.3 24.1 0.00 0.00 0.00 64 1022.8
20260506214019 9 261 16.1 24.1 0.00 0.00 0.00 63 1022.7
20260506213525 9 260 12.9 19.3 0.00 0.00 0.00 64 1022.8
20260506213127 9 279 12.9 19.3 0.00 0.00 0.00 64 1022.9
20260506212523 10 306 11.3 17.7 0.00 0.00 0.00 63 1022.9
20260506212020 10 310 6.4 17.7 0.00 0.00 0.00 63 1022.9
20260506211611 10 297 11.3 17.7 0.00 0.00 0.00 63 1022.8
20260506211022 9 260 12.9 17.7 0.00 0.00 0.00 62 1022.8
20260506210522 9 277 11.3 19.3 0.00 0.00 0.00 63 1022.8
20260506210104 9 281 11.3 20.9 0.00 0.00 0.00 63 1022.7
20260506205518 9 283 14.5 20.9 0.00 0.00 0.00 62 1022.6
20260506205022 9 288 16.1 20.9 0.00 0.00 0.00 62 1022.6
20260506204606 9 279 14.5 20.9 0.00 0.00 0.00 61 1022.5
20260506204021 10 280 12.9 17.7 0.00 0.00 0.00 60 1022.5
20260506203521 10 298 11.3 19.3 0.00 0.00 0.00 62 1022.3
20260506203049 9 252 11.3 19.3 0.00 0.00 0.00 63 1022.4
20260506202520 9 255 11.3 17.7 0.00 0.00 0.00 63 1022.4
20260506202224 9 269 3.2 16.1 0.00 0.00 0.00 63 1022.5
20260506201551 9 270 11.3 19.3 0.00 0.00 0.00 63 1022.4
20260506201012 9 285 11.3 19.3 0.00 0.00 0.00 63 1022.3
20260506200513 9 245 12.9 19.3 0.00 0.00 0.00 63 1022.4
20260506200040 9 288 11.3 20.9 0.00 0.00 0.00 64 1022.3
20260506195509 8 284 16.1 20.9 0.00 0.00 0.00 64 1022.3
20260506195011 9 271 16.1 20.9 0.00 0.00 0.00 63 1022.2
20260506194552 9 293 14.5 22.5 0.00 0.00 0.00 66 1022.2
20260506194013 8 239 17.7 19.3 0.00 0.00 0.00 66 1021.9
20260506193509 8 268 11.3 22.5 0.00 0.00 0.00 67 1022.0
20260506193040 8 283 16.1 22.5 0.00 0.00 0.00 66 1022.0
20260506192510 8 271 16.1 20.9 0.00 0.00 0.00 66 1021.9
20260506192011 8 286 14.5 20.9 0.00 0.00 0.00 66 1021.9
20260506191545 8 275 14.5 20.9 0.00 0.00 0.00 67 1021.9
20260506191012 8 254 12.9 20.9 0.00 0.00 0.00 68 1022.1
20260506190516 8 278 14.5 22.5 0.00 0.00 0.00 69 1022.1
20260506190044 8 215 14.5 22.5 0.00 0.00 0.00 69 1022.0
20260506185511 8 257 14.5 22.5 0.00 0.00 0.00 69 1022.0
20260506185014 8 263 16.1 22.5 0.00 0.00 0.00 69 1021.8
20260506184540 8 249 14.5 22.5 0.00 0.00 0.00 69 1021.7
20260506184016 8 254 17.7 22.5 0.00 0.00 0.00 68 1021.7
20260506183510 8 260 12.9 20.9 0.00 0.00 0.00 68 1021.7
20260506183052 8 213 11.3 20.9 0.00 0.00 0.00 70 1021.8
20260506182511 8 251 14.5 19.3 0.00 0.00 0.00 69 1021.9
20260506182012 8 247 12.9 19.3 0.00 0.00 0.00 69 1021.9
20260506181538 8 284 11.3 19.3 0.00 0.00 0.00 69 1021.9
20260506181013 8 277 11.3 19.3 0.00 0.00 0.00 70 1021.9
20260506180513 7 255 14.5 17.7 0.00 0.00 0.00 70 1021.8
20260506180040 7 260 11.3 20.9 0.00 0.00 0.00 70 1021.9
20260506175512 8 290 12.9 20.9 0.00 0.00 0.00 70 1021.9
20260506175010 7 298 9.7 19.3 0.00 0.00 0.00 70 1021.8
20260506174539 7 281 11.3 17.7 0.00 0.00 0.00 71 1021.8
20260506174011 7 253 11.3 20.9 0.00 0.00 0.00 71 1021.8
20260506173511 7 282 12.9 20.9 0.00 0.00 0.00 70 1021.8
20260506173038 7 271 12.9 19.3 0.00 0.00 0.00 71 1021.7
20260506172513 7 247 11.3 19.3 0.00 0.00 0.00 70 1021.8
20260506172011 7 273 11.3 20.9 0.00 0.00 0.00 71 1021.8
20260506171539 7 277 14.5 20.9 0.00 0.00 0.00 71 1021.9
20260506171017 7 263 16.1 22.5 0.00 0.00 0.00 71 1021.8
20260506170515 7 281 16.1 22.5 0.00 0.00 0.00 72 1021.8
20260506170100 7 273 17.7 24.1 0.00 0.00 0.00 71 1021.8
20260506165513 7 269 19.3 24.1 0.00 0.00 0.00 71 1021.7
20260506165011 7 271 16.1 24.1 0.00 0.00 0.00 71 1021.7
20260506164538 7 264 14.5 22.5 0.00 0.00 0.00 72 1021.6
20260506164016 7 261 14.5 19.3 0.00 0.00 0.00 72 1021.6
20260506163511 7 296 11.3 19.3 0.00 0.00 0.00 72 1021.7
20260506163041 7 260 14.5 19.3 0.00 0.00 0.00 73 1021.6
20260506162511 7 265 9.7 19.3 0.00 0.00 0.00 73 1021.7
20260506162016 7 263 9.7 24.1 0.00 0.00 0.00 72 1021.7
20260506161540 7 288 14.5 24.1 0.00 0.00 0.00 73 1021.6
20260506161013 7 313 8.0 17.7 0.00 0.00 0.00 72 1021.7
20260506160510 7 301 8.0 19.3 0.00 0.00 0.00 73 1021.6
20260506160046 7 315 14.5 22.5 0.00 0.00 0.00 73 1021.5
20260506155510 7 360 16.1 22.5 0.00 0.00 0.00 73 1021.5
20260506155013 7 313 12.9 20.9 0.00 0.00 0.00 74 1021.4
20260506154541 7 308 14.5 20.9 0.00 0.00 0.00 74 1021.4
20260506154013 7 327 16.1 20.9 0.00 0.00 0.00 75 1021.4
20260506153511 7 360 14.5 24.1 0.00 0.00 0.00 75 1021.4
20260506153038 7 360 14.5 24.1 0.00 0.00 0.00 75 1021.3
20260506152511 7 309 12.9 25.7 0.00 0.00 0.00 75 1021.3
20260506152015 7 298 16.1 25.7 0.00 0.00 0.00 75 1021.2
20260506151543 7 307 11.3 25.7 0.00 0.00 0.00 75 1021.2
20260506151014 7 305 19.3 25.7 0.00 0.00 0.00 75 1021.2
20260506150513 7 297 12.9 20.9 0.00 0.00 0.00 75 1021.2
20260506150046 7 294 14.5 19.3 0.00 0.00 0.00 76 1021.1
20260506145514 7 310 14.5 19.3 0.00 0.00 0.00 76 1021.1
20260506145013 7 296 8.0 17.7 0.00 0.00 0.00 76 1021.1
20260506144545 7 290 8.0 16.1 0.00 0.00 0.00 77 1021.0
20260506144011 7 285 9.7 24.1 0.00 0.00 0.00 76 1021.0
20260506143511 6 280 14.5 24.1 0.00 0.00 0.00 77 1020.9
20260506143035 6 270 11.3 16.1 0.00 0.00 0.00 77 1020.9
20260506142516 6 304 4.8 14.5 0.00 0.00 0.00 77 1020.8
20260506142013 6 305 9.7 16.1 0.00 0.00 0.00 77 1020.8
20260506141539 6 360 8.0 19.3 0.00 0.00 0.00 78 1020.8
20260506141011 6 300 12.9 24.1 0.00 0.00 0.00 77 1020.8
20260506140514 6 313 14.5 25.7 0.00 0.00 0.00 78 1020.7
20260506140048 6 360 19.3 27.4 0.00 0.00 0.00 78 1020.8
20260506135515 6 315 16.1 27.4 0.00 0.00 0.00 78 1020.7
20260506135010 6 309 17.7 25.7 0.00 0.00 0.00 78 1020.6
20260506134545 6 299 17.7 25.7 0.00 0.00 0.00 77 1020.5
20260506134017 6 292 17.7 24.1 0.00 0.00 0.00 77 1020.5
20260506133514 6 288 14.5 25.7 0.00 0.00 0.00 77 1020.5
20260506133037 7 290 14.5 25.7 0.00 0.00 0.00 77 1020.4
20260506132511 7 296 11.3 25.7 0.00 0.00 0.00 76 1020.4
20260506132012 7 298 11.3 24.1 0.00 0.00 0.00 77 1020.2
20260506131537 7 42 11.3 24.1 0.00 0.00 0.00 77 1020.3
20260506131011 7 311 12.9 24.1 0.00 0.00 0.00 77 1020.2
20260506130515 7 313 11.3 22.5 0.00 0.00 0.00 76 1020.3
20260506130046 7 283 17.7 25.7 0.00 0.00 0.00 76 1020.2
20260506125511 7 360 14.5 25.7 0.00 0.00 0.00 76 1020.2
20260506125013 7 283 12.9 24.1 0.00 0.00 0.00 77 1020.2
20260506124540 7 360 11.3 24.1 0.00 0.00 0.00 78 1020.2
20260506124014 7 303 16.1 27.4 0.00 0.00 0.00 78 1020.1
20260506123514 7 243 11.3 19.3 0.00 0.00 0.00 79 1020.1
20260506123039 7 291 12.9 19.3 0.00 0.00 0.00 79 1020.1
20260506122513 7 281 11.3 20.9 0.00 0.00 0.00 79 1020.2
20260506122014 7 304 12.9 22.5 0.00 0.00 0.00 79 1020.1
20260506121538 7 292 14.5 22.5 0.00 0.00 0.00 79 1019.9
20260506121011 7 308 9.7 22.5 0.00 0.00 0.00 79 1020.0
20260506120511 7 281 12.9 22.5 0.00 0.00 0.00 78 1019.9
20260506120046 7 285 11.3 20.9 0.00 0.00 0.00 79 1019.8
20260506115512 7 267 12.9 24.1 0.00 0.00 0.00 78 1019.7
20260506115011 7 265 16.1 24.1 0.00 0.00 0.00 78 1019.6
20260506114539 7 278 14.5 24.1 0.00 0.00 0.00 79 1019.7
20260506114012 7 266 16.1 24.1 0.00 0.00 0.00 78 1019.6
20260506113513 7 292 14.5 22.5 0.00 0.00 0.00 79 1019.5
20260506113038 7 276 14.5 20.9 0.00 0.00 0.00 80 1019.5
20260506112512 7 289 12.9 20.9 0.00 0.00 0.00 80 1019.5
20260506112016 7 279 12.9 20.9 0.00 0.00 0.00 80 1019.5
20260506111546 7 249 14.5 17.7 0.00 0.00 0.00 80 1019.4
20260506111017 7 269 9.7 17.7 0.00 0.00 0.00 81 1019.4
20260506110513 7 270 9.7 17.7 0.00 0.00 0.00 81 1019.4
20260506110037 7 276 14.5 17.7 0.00 0.00 0.00 80 1019.3
20260506105514 7 285 12.9 17.7 0.00 0.00 0.00 81 1019.3
20260506105013 7 273 8.0 14.5 0.00 0.00 0.00 81 1019.4
20260506104545 7 290 9.7 17.7 0.00 0.00 0.00 82 1019.4
20260506104014 7 275 11.3 17.7 0.00 0.00 0.00 82 1019.4
20260506103513 7 288 8.0 16.1 0.00 0.00 0.00 82 1019.4
20260506103049 7 261 11.3 16.1 0.00 0.00 0.00 82 1019.4
20260506102515 7 277 9.7 16.1 0.00 0.00 0.00 82 1019.4
20260506102014 7 263 11.3 16.1 0.00 0.00 0.00 82 1019.5
20260506101549 7 264 9.7 16.1 0.00 0.00 0.00 82 1019.5
20260506101013 7 259 11.3 16.1 0.00 0.00 0.00 81 1019.5
20260506100512 7 256 9.7 17.7 0.00 0.00 0.00 81 1019.4
20260506100047 7 254 12.9 17.7 0.00 0.00 0.00 81 1019.4
20260506095513 7 262 12.9 19.3 0.00 0.00 0.00 81 1019.3
20260506095011 7 262 14.5 19.3 0.00 0.00 0.00 81 1019.4
20260506094535 7 262 12.9 17.7 0.00 0.00 0.00 82 1019.2
20260506094012 7 255 12.9 17.7 0.00 0.00 0.00 82 1019.2
20260506093513 7 261 11.3 17.7 0.00 0.00 0.00 82 1019.2
20260506093037 7 259 12.9 17.7 0.00 0.00 0.00 82 1019.1
20260506092513 7 248 12.9 19.3 0.00 0.00 0.00 82 1019.1
20260506092014 7 254 12.9 20.9 0.00 0.00 0.00 81 1019.1
20260506091545 7 260 16.1 20.9 0.00 0.00 0.00 81 1019.1
20260506091011 7 257 16.1 20.9 0.00 0.00 0.00 81 1019.0
20260506090513 7 260 16.1 20.9 0.00 0.00 0.00 80 1019.0
20260506090059 7 264 16.1 20.9 0.00 0.00 0.00 79 1019.0
20260506085515 7 250 14.5 20.9 0.00 0.00 0.00 80 1018.8
20260506085013 7 254 16.1 20.9 0.00 0.00 0.00 79 1019.0
20260506084600 7 248 16.1 20.9 0.00 0.00 0.00 79 1018.8
20260506084015 7 254 16.1 20.9 0.00 0.00 0.00 79 1018.8
20260506083516 7 261 16.1 22.5 0.00 0.00 0.00 79 1018.8
20260506083041 7 259 17.7 29.0 0.00 0.00 0.00 78 1018.8
20260506082515 7 261 17.7 29.0 0.00 0.00 0.00 77 1018.5
20260506082014 7 259 19.3 24.1 0.00 0.00 0.00 78 1018.6
20260506081544 7 263 19.3 24.1 0.00 0.00 0.00 78 1018.6
20260506081014 7 262 17.7 24.1 0.00 0.00 0.00 77 1018.6
20260506080513 7 264 17.7 24.1 0.00 0.00 0.00 77 1018.6
20260506073512 7 255 20.9 27.4 0.00 0.00 0.00 74 1018.4
20260506073059 7 267 19.3 27.4 0.00 0.00 0.00 74 1018.3
20260506072515 7 244 17.7 27.4 0.00 0.00 0.00 74 1018.2
20260506072017 7 244 20.9 27.4 0.00 0.00 0.00 74 1018.2
20260506071553 7 264 20.9 27.4 0.00 0.00 0.00 74 1018.3
20260506071014 7 268 19.3 24.1 0.00 0.00 0.00 73 1018.2
20260506070513 7 253 16.1 24.1 0.00 0.00 0.00 73 1018.2
20260506062515 7 250 17.7 29.0 0.00 0.00 0.00 73 1018.0
20260506062013 7 262 20.9 30.6 0.00 0.00 0.00 73 1017.9
20260506061555 7 273 19.3 32.2 0.00 0.00 0.00 73 1018.1
20260506061015 7 269 20.9 29.0 0.00 0.00 0.00 73 1018.0
20260506060523 7 270 17.7 29.0 0.00 0.00 0.00 73 1018.0
20260506051015 8 269 24.1 33.8 0.00 0.00 0.00 70 1017.7
20260506050520 8 275 25.7 33.8 0.00 0.00 0.00 69 1017.7
20260506045014 8 254 24.1 38.6 0.00 0.00 0.00 69 1017.5
20260506044551 8 267 27.4 40.2 0.00 0.00 0.00 68 1017.4
20260506044017 9 269 30.6 41.8 0.00 0.00 0.00 68 1017.2
20260506043515 9 253 29.0 41.8 0.00 0.00 0.00 67 1017.1
20260506043046 9 270 22.5 29.0 0.00 0.00 0.00 66 1017.2
20260506042516 10 267 19.3 27.4 0.00 0.00 0.00 66 1017.2
20260506042015 10 273 17.7 27.4 0.00 0.00 0.00 66 1017.0
20260506041552 10 264 19.3 25.7 0.00 0.00 0.00 66 1016.9
20260506041015 10 292 17.7 32.2 0.00 0.00 0.00 65 1016.9
20260506040519 10 262 24.1 32.2 0.00 0.00 0.00 64 1016.8
20260506040107 10 265 19.3 29.0 0.00 0.00 0.00 64 1016.3
20260506035518 10 279 20.9 32.2 0.00 0.00 0.00 63 1016.1
20260506035016 10 293 22.5 32.2 0.00 0.00 0.00 63 1015.9
20260506034549 11 273 20.9 33.8 0.00 0.00 0.00 61 1016.0
20260506034016 11 273 24.1 32.2 0.00 0.00 0.00 61 1015.8
20260506033515 11 278 24.1 32.2 0.00 0.00 0.00 60 1016.0
20260506033047 11 261 22.5 29.0 0.00 0.00 0.00 58 1015.8
20260506032516 11 267 17.7 27.4 0.00 0.00 0.00 58 1015.7
20260506032013 12 272 20.9 32.2 0.00 0.00 0.00 56 1015.8
20260506031549 12 273 22.5 32.2 0.00 0.00 0.00 54 1015.8
20260506031015 12 272 19.3 32.2 0.00 0.00 0.00 54 1015.8
20260506030515 12 280 22.5 32.2 0.00 0.00 0.00 55 1015.4
20260506030056 12 263 20.9 37.0 0.00 0.00 0.00 55 1015.5
20260506025516 12 272 24.1 37.0 0.00 0.00 0.00 55 1015.3
20260506025016 12 296 20.9 32.2 0.00 0.00 0.00 55 1015.3
20260506024557 12 266 24.1 32.2 0.00 0.00 0.00 54 1015.4
20260506024016 12 255 24.1 32.2 0.00 0.00 0.00 54 1015.2
20260506023520 13 245 20.9 33.8 0.00 0.00 0.00 52 1015.4
20260506023050 13 250 25.7 33.8 0.00 0.00 0.00 53 1015.2
20260506022518 13 257 24.1 30.6 0.00 0.00 0.00 52 1015.1
20260506022017 13 264 19.3 30.6 0.00 0.00 0.00 52 1015.4
20260506021559 13 224 24.1 35.4 0.00 0.00 0.00 51 1015.0
20260506021019 13 248 27.4 35.4 0.00 0.00 0.00 52 1014.9
20260506020515 13 246 22.5 32.2 0.00 0.00 0.00 53 1015.2
20260506020044 13 260 24.1 32.2 0.00 0.00 0.00 53 1015.1
20260506015514 13 260 19.3 29.0 0.00 0.00 0.00 53 1015.3
20260506015019 14 257 17.7 27.4 0.00 0.00 0.00 51 1015.3
20260506014558 14 250 20.9 30.6 0.00 0.00 0.00 50 1015.1
20260506014019 14 269 19.3 30.6 0.00 0.00 0.00 51 1015.1
20260506013517 14 274 17.7 29.0 0.00 0.00 0.00 50 1015.0
20260506013053 14 247 22.5 30.6 0.00 0.00 0.00 49 1014.7
20260506012515 15 252 22.5 30.6 0.00 0.00 0.00 50 1014.7
20260506012021 15 260 17.7 25.7 0.00 0.00 0.00 50 1014.9
20260506011603 15 209 16.1 19.3 0.00 0.00 0.00 50 1014.9
20260506011015 15 244 11.3 22.5 0.00 0.00 0.00 50 1015.0
20260506010519 15 245 14.5 29.0 0.00 0.00 0.00 52 1015.0
20260506010050 15 256 19.3 37.0 0.00 0.00 0.00 52 1014.9
20260506005515 15 260 19.3 29.0 0.00 0.00 0.00 53 1015.0
20260506005015 15 250 20.9 30.6 0.00 0.00 0.00 53 1014.9
20260506004550 15 242 20.9 30.6 0.00 0.00 0.00 53 1015.0
20260506004015 15 255 14.5 29.0 0.00 0.00 0.00 53 1015.1
20260506003516 15 260 16.1 37.0 0.00 0.00 0.00 53 1015.2
20260506003043 15 245 22.5 37.0 0.00 0.00 0.00 54 1014.9
20260506002514 15 252 24.1 33.8 0.00 0.00 0.00 53 1014.7
20260506002015 15 277 22.5 32.2 0.00 0.00 0.00 54 1014.8
20260506001546 15 269 22.5 32.2 0.00 0.00 0.00 53 1014.8
20260506001016 16 241 19.3 30.6 0.00 0.00 0.00 54 1014.9
20260506000514 16 271 17.7 25.7 0.00 0.00 0.00 52 1015.0
20260506000049 16 236 19.3 29.0 0.00 0.00 0.00 54 1014.8